Regional Weather Roundup
Issued by NWS Green Bay, WI

Home | Current Version | Previous Version | Graphics & Text | Print | Product List | Glossary Off
Versions: 1 2 3 4 5 6 7 8 9 10 11 12 13 14 15 16 17 18 19 20 21 22 23 24 25 26 27 28 29 30 31 32 33 34 35 36 37 38 39 40 41 42 43 44 45 46 47 48 49 50

000
ASUS43 KGRB 091200
RWRGRB

NORTH-CENTRAL AND NORTHEAST WISCONSIN REGIONAL WEATHER ROUNDUP
NATIONAL WEATHER SERVICE GREEN BAY WI
600 AM CST TUE FEB 09 2016

WIZ005-009-010>012-018-019-091300-
NORTH CENTRAL WISCONSIN

CITY           SKY/WX    TMP DP  RH WIND       PRES   REMARKS
IRONWOOD       CLOUDY    10   7  85 N17G23    29.84R VSB 1   WCI  -7
MANITOWISH WTR NOT AVBL
ARBOR VITAE    NOT AVBL
EAGLE RIVER    NOT AVBL
LAND O LAKES   NOT AVBL
RHINELANDER    LGT SNOW  10   4  76 NW9G16    29.76R WCI  -3
PHILLIPS       NOT AVBL
ANTIGO         NOT AVBL
TOMAHAWK       NOT AVBL
MERRILL        NOT AVBL
$$

WIZ013-073-091300-
NORTHEAST WISCONSIN

CITY           SKY/WX    TMP DP  RH WIND       PRES   REMARKS
IRON MOUNTAIN  LGT SNOW  11   4  73 NW15      29.73R VSB 1   WCI  -5
MARINETTE      CLOUDY    14   3  62 N12G21    29.76R WCI   0
$$

WIZ017-030-035>037-045-091300-
CENTRAL WISCONSIN

CITY           SKY/WX    TMP DP  RH WIND       PRES   REMARKS
MEDFORD        NOT AVBL
WAUSAU         LGT SNOW  10   5  80 NW9       29.79S WCI  -3
MOSINEE        LGT SNOW   9   5  85 NW14G24   29.82R WCI  -8
MARSHFIELD     LGT SNOW   7   0  73 NW20      29.83R WCI -13
WISC RAPIDS    LGT SNOW   8   0  69 NW14      29.86R WCI  -8
STEVENS POINT  NOT AVBL
WAUPACA        NOT AVBL
SHAWANO        NOT AVBL
CLINTONVILLE   NOT AVBL
WAUTOMA        NOT AVBL
$$

WIZ038-039-048-051-091300-
FOX VALLEY

CITY           SKY/WX    TMP DP  RH WIND       PRES   REMARKS
NWS GREEN BAY  CLOUDY    13   7  77 NW10      29.78S WCI   0
APPLETON       CLOUDY    12   3  67 NW15      29.77R WCI  -4
OSHKOSH        LGT SNOW  10   4  76 NW13      29.79R WCI  -5
FOND DU LAC    FLURRIES  11   5  77 NW16      29.79R WCI  -6
$$

WIZ022-050-052-091300-
EAST CENTRAL WISCONSIN

CITY           SKY/WX    TMP DP  RH WIND       PRES   REMARKS
EPHRAIM        NOT AVBL
STURGEON BAY   CLOUDY    14   3  62 NW17      29.77R WCI  -3
MANITOWOC      NOT AVBL
SHEBOYGAN      PTCLDY    12   6  77 NW12      29.76R WCI  -2
$$

LMZ563-521-522-541>543-091300-
LAKESHORE

STATION/POSITION TIME  TEMP    WIND        PRES    VSBY  WAVE
                       AIR SEA DIR/SP/G                  HT/PER
                 (UTC) (F)     (DEG/KT/KT) (MB)    (MI)  (FT/S)
SHEBOYGAN LKSHOR 1100   15     310/ 12/ 15 1008.7R
KEWAUNEE LKSHORE 1100   15     320/ 12/ 19 1006.4S
ALGOMA MARINA    1111          320/ 19/ 26   N/A
CHAMBERS ISLAND  1100   15     310/ 16/ 23 1007.1S
MENOMINEE LKSHOR 1100   15     320/ 14     1006.6R
$$



USA.gov is the U.S. government's official web portal to all federal, state and local government web resources and services.